AFL1335 ULAA-UUEE

Flight info

Callsign AFL1335
Flight time 1h 34m
Altitude 34000
Route N0450F340 ABELU T825 UREPI P65 ROMTA
Aircraft A321/M-VGDW/C

Departure

Time 2026-04-25 07:58
Airport Talagi Airport (ULAA)

Arrival

Time 2026-04-25 09:33
Airport Sheremetyevo International Airport (UUEE)
Time Latitude Longitude Altitude Speed Heading
2026-04-25 07:36 64.59666 40.71389 40 ft 0 kts 186°
2026-04-25 07:48 64.59677 40.71392 40 ft 4 kts 192°
2026-04-25 07:48 64.59700 40.71412 39 ft 4 kts 220°
2026-04-25 07:48 64.59715 40.71458 38 ft 4 kts 260°
2026-04-25 07:49 64.59716 40.71488 39 ft 0 kts 276°
2026-04-25 07:53 64.59717 40.71480 40 ft 3 kts 276°
2026-04-25 07:53 64.59723 40.71341 40 ft 10 kts 277°
2026-04-25 07:53 64.59770 40.71270 40 ft 7 kts 355°
2026-04-25 07:53 64.59819 40.71286 40 ft 8 kts
2026-04-25 07:54 64.59939 40.71319 40 ft 26 kts
2026-04-25 07:54 64.60043 40.71373 38 ft 3 kts 75°
2026-04-25 07:54 64.60037 40.71506 37 ft 16 kts 96°
2026-04-25 07:54 64.60021 40.71834 35 ft 24 kts 96°
2026-04-25 07:55 64.60001 40.72222 34 ft 24 kts 96°
2026-04-25 07:55 64.59984 40.72590 36 ft 25 kts 96°
2026-04-25 07:55 64.59963 40.73003 40 ft 25 kts 96°
2026-04-25 07:55 64.59944 40.73404 37 ft 25 kts 96°
2026-04-25 07:56 64.59922 40.73801 35 ft 24 kts 99°
2026-04-25 07:56 64.59893 40.74115 36 ft 9 kts 108°
2026-04-25 07:56 64.59894 40.74139 36 ft 1 kts 65°
2026-04-25 07:56 64.59908 40.74084 35 ft 7 kts 287°
2026-04-25 07:57 64.59916 40.73965 32 ft 8 kts 276°
2026-04-25 07:57 64.59923 40.73815 35 ft 19 kts 276°
2026-04-25 07:57 64.59968 40.72892 39 ft 92 kts 276°
2026-04-25 07:57 64.60064 40.70927 38 ft 149 kts 276°
2026-04-25 07:58 64.60201 40.68209 189 ft 180 kts 276°
2026-04-25 07:58 64.60359 40.65431 1173 ft 166 kts 277°
2026-04-25 07:58 64.60527 40.62766 1779 ft 173 kts 276°
2026-04-25 07:58 64.60658 40.59769 1938 ft 197 kts 273°
2026-04-25 07:59 64.60736 40.56386 2194 ft 220 kts 271°
2026-04-25 07:59 64.60761 40.52774 2954 ft 221 kts 269°
2026-04-25 07:59 64.60757 40.49229 3888 ft 217 kts 269°
2026-04-25 07:59 64.60668 40.45642 4460 ft 229 kts 253°
2026-04-25 08:00 64.59748 40.42491 4843 ft 248 kts 217°
2026-04-25 08:00 64.58137 40.40911 5534 ft 259 kts 194°
2026-04-25 08:00 64.56344 40.40356 6329 ft 262 kts 187°
2026-04-25 08:00 64.54502 40.40087 7029 ft 267 kts 186°
2026-04-25 08:01 64.52635 40.39841 7781 ft 270 kts 187°
2026-04-25 08:01 64.50750 40.39525 8529 ft 273 kts 188°
2026-04-25 08:01 64.48846 40.39122 9255 ft 276 kts 189°
2026-04-25 08:01 64.46912 40.38647 9749 ft 288 kts 189°
2026-04-25 08:02 64.44846 40.38090 9894 ft 310 kts 190°
2026-04-25 08:02 64.42644 40.37467 10110 ft 327 kts 190°
2026-04-25 08:02 64.40362 40.36820 10666 ft 333 kts 190°
2026-04-25 08:02 64.38048 40.36169 11304 ft 337 kts 189°
2026-04-25 08:03 64.35709 40.35505 11965 ft 340 kts 190°
2026-04-25 08:03 64.33349 40.34829 12616 ft 344 kts 190°
2026-04-25 08:03 64.30961 40.34145 13249 ft 348 kts 190°
2026-04-25 08:03 64.28577 40.33472 13804 ft 351 kts 189°
2026-04-25 08:04 64.26136 40.32787 14371 ft 355 kts 189°
2026-04-25 08:04 64.23673 40.32103 14929 ft 359 kts 189°
2026-04-25 08:04 64.21182 40.31411 15477 ft 362 kts 189°
2026-04-25 08:04 64.18669 40.30712 16018 ft 366 kts 189°
2026-04-25 08:05 64.16129 40.30007 16552 ft 369 kts 189°
2026-04-25 08:05 64.13567 40.29293 17076 ft 373 kts 189°
2026-04-25 08:05 64.10980 40.28569 17601 ft 376 kts 189°
2026-04-25 08:05 64.08369 40.27837 18050 ft 380 kts 190°
2026-04-25 08:06 64.05734 40.27094 18476 ft 383 kts 190°
2026-04-25 08:06 64.03082 40.26348 18898 ft 386 kts 190°
2026-04-25 08:06 64.00407 40.25611 19301 ft 389 kts 190°
2026-04-25 08:06 63.97712 40.24870 19688 ft 391 kts 190°
2026-04-25 08:07 63.94999 40.24128 20069 ft 394 kts 190°
2026-04-25 08:07 63.92264 40.23384 20434 ft 397 kts 190°
2026-04-25 08:07 63.89510 40.22635 20802 ft 400 kts 191°
2026-04-25 08:07 63.86734 40.21882 21161 ft 403 kts 191°
2026-04-25 08:08 63.83975 40.21138 21519 ft 406 kts 191°
2026-04-25 08:08 63.81166 40.20374 21869 ft 409 kts 191°
2026-04-25 08:08 63.78328 40.19598 22229 ft 412 kts 191°
2026-04-25 08:08 63.75470 40.18818 22590 ft 415 kts 191°
2026-04-25 08:09 63.72639 40.17637 22936 ft 413 kts 200°
2026-04-25 08:09 63.69911 40.15628 23232 ft 414 kts 204°
2026-04-25 08:09 63.67180 40.13524 23535 ft 416 kts 204°
2026-04-25 08:09 63.64431 40.11408 23843 ft 418 kts 204°
2026-04-25 08:10 63.61673 40.09283 24146 ft 420 kts 204°
2026-04-25 08:10 63.58898 40.07153 24448 ft 422 kts 204°
2026-04-25 08:10 63.56107 40.05026 24752 ft 425 kts 204°
2026-04-25 08:10 63.53302 40.02899 25046 ft 427 kts 204°
2026-04-25 08:11 63.50481 40.00767 25332 ft 429 kts 204°
2026-04-25 08:11 63.47649 39.98631 25615 ft 431 kts 204°
2026-04-25 08:11 63.44802 39.96487 25883 ft 432 kts 204°
2026-04-25 08:11 63.41964 39.94239 26174 ft 433 kts 205°
2026-04-25 08:12 63.39144 39.91832 26443 ft 434 kts 206°
2026-04-25 08:12 63.36332 39.89329 26714 ft 436 kts 207°
2026-04-25 08:12 63.33554 39.86819 26965 ft 438 kts 207°
2026-04-25 08:12 63.30722 39.84276 27239 ft 440 kts 207°
2026-04-25 08:13 63.27871 39.81754 27502 ft 442 kts 206°
2026-04-25 08:13 63.25003 39.79260 27763 ft 444 kts 206°
2026-04-25 08:13 63.22119 39.76782 28011 ft 446 kts 206°
2026-04-25 08:14 63.16305 39.71830 28498 ft 449 kts 206°
2026-04-25 08:14 63.13387 39.69353 28718 ft 451 kts 206°
2026-04-25 08:14 63.10454 39.66863 28932 ft 452 kts 206°
2026-04-25 08:14 63.07513 39.64363 29139 ft 454 kts 206°
2026-04-25 08:15 63.04561 39.61865 29339 ft 455 kts 206°
2026-04-25 08:15 63.01599 39.59355 29526 ft 456 kts 207°
2026-04-25 08:15 62.98635 39.56840 29670 ft 458 kts 207°
2026-04-25 08:15 62.95659 39.54324 29830 ft 458 kts 206°
2026-04-25 08:16 62.92682 39.51823 30028 ft 458 kts 206°
2026-04-25 08:16 62.89704 39.49325 30222 ft 458 kts 206°
2026-04-25 08:16 62.86730 39.46843 30401 ft 458 kts 206°
2026-04-25 08:16 62.83786 39.44388 30573 ft 459 kts 206°
2026-04-25 08:17 62.80802 39.41896 30768 ft 459 kts 206°
2026-04-25 08:17 62.77825 39.39417 30942 ft 459 kts 206°
2026-04-25 08:17 62.74841 39.36931 31135 ft 459 kts 206°
2026-04-25 08:17 62.71858 39.34454 31327 ft 459 kts 206°
2026-04-25 08:18 62.68875 39.31982 31521 ft 459 kts 206°
2026-04-25 08:18 62.65893 39.29519 31714 ft 458 kts 206°
2026-04-25 08:18 62.62913 39.27064 31903 ft 458 kts 206°
2026-04-25 08:18 62.59928 39.24617 32089 ft 458 kts 206°
2026-04-25 08:19 62.56948 39.22180 32277 ft 458 kts 205°
2026-04-25 08:19 62.53964 39.19747 32462 ft 458 kts 205°
2026-04-25 08:19 62.50985 39.17329 32644 ft 458 kts 205°
2026-04-25 08:19 62.48003 39.14905 32826 ft 457 kts 205°
2026-04-25 08:20 62.45024 39.12487 33009 ft 457 kts 205°
2026-04-25 08:20 62.42049 39.10069 33194 ft 457 kts 205°
2026-04-25 08:20 62.39082 39.07657 33374 ft 457 kts 205°
2026-04-25 08:20 62.36103 39.05243 33512 ft 456 kts 205°
2026-04-25 08:21 62.33183 39.02886 33537 ft 452 kts 205°
2026-04-25 08:21 62.27319 38.98165 33541 ft 449 kts 205°
2026-04-25 08:22 62.21461 38.93488 33546 ft 449 kts 205°
2026-04-25 08:22 62.15605 38.88826 33547 ft 449 kts 205°
2026-04-25 08:23 62.09735 38.84176 33545 ft 450 kts 205°
2026-04-25 08:23 62.03869 38.79540 33542 ft 450 kts 205°
2026-04-25 08:24 61.97991 38.74918 33542 ft 450 kts 205°
2026-04-25 08:24 61.92094 38.70376 33541 ft 453 kts 200°
2026-04-25 08:25 61.85939 38.67560 33547 ft 456 kts 195°
2026-04-25 08:25 61.79712 38.64939 33548 ft 457 kts 195°
2026-04-25 08:26 61.73483 38.62283 33550 ft 457 kts 196°
2026-04-25 08:26 61.67250 38.59645 33550 ft 457 kts 195°
2026-04-25 08:27 61.61013 38.57024 33552 ft 457 kts 195°
2026-04-25 08:27 61.54777 38.54409 33550 ft 457 kts 195°
2026-04-25 08:28 61.48530 38.51815 33556 ft 457 kts 195°
2026-04-25 08:28 61.42285 38.49239 33554 ft 458 kts 195°
2026-04-25 08:29 61.36037 38.46651 33554 ft 458 kts 195°
2026-04-25 08:29 61.29792 38.44057 33555 ft 458 kts 195°
2026-04-25 08:30 61.23566 38.41606 33553 ft 460 kts 191°
2026-04-25 08:30 61.17186 38.40235 33555 ft 461 kts 190°
2026-04-25 08:31 61.10802 38.38864 33555 ft 461 kts 190°
2026-04-25 08:31 61.04422 38.37500 33566 ft 461 kts 189°
2026-04-25 08:32 60.98039 38.36160 33567 ft 461 kts 189°
2026-04-25 08:32 60.91665 38.34820 33577 ft 461 kts 189°
2026-04-25 08:33 60.85289 38.33489 33574 ft 460 kts 189°
2026-04-25 08:33 60.78921 38.32158 33575 ft 460 kts 189°
2026-04-25 08:34 60.73630 38.31057 33579 ft 460 kts 190°
2026-04-25 08:34 60.66237 38.29519 33580 ft 460 kts 190°
2026-04-25 08:35 60.59873 38.28200 33584 ft 459 kts 190°
2026-04-25 08:35 60.54545 38.27110 33586 ft 459 kts 190°
2026-04-25 08:36 60.48187 38.25804 33594 ft 459 kts 190°
2026-04-25 08:36 60.41873 38.24521 33588 ft 459 kts 190°
2026-04-25 08:37 60.35528 38.23237 33591 ft 458 kts 190°
2026-04-25 08:37 60.29188 38.21956 33588 ft 457 kts 190°
2026-04-25 08:38 60.22858 38.20671 33581 ft 457 kts 190°
2026-04-25 08:38 60.16529 38.19386 33583 ft 457 kts 190°
2026-04-25 08:39 60.10200 38.18112 33579 ft 457 kts 190°
2026-04-25 08:39 60.03872 38.16837 33575 ft 457 kts 190°
2026-04-25 08:40 59.97550 38.15565 33575 ft 457 kts 191°
2026-04-25 08:40 59.91227 38.14307 33579 ft 456 kts 190°
2026-04-25 08:41 59.84952 38.13083 33579 ft 456 kts 191°
2026-04-25 08:41 59.78634 38.11836 33583 ft 456 kts 191°
2026-04-25 08:42 59.72314 38.10578 33585 ft 457 kts 191°
2026-04-25 08:42 59.65989 38.09327 33588 ft 457 kts 191°
2026-04-25 08:43 59.59660 38.08103 33592 ft 457 kts 191°
2026-04-25 08:43 59.53334 38.06882 33598 ft 457 kts 191°
2026-04-25 08:44 59.47010 38.05661 33599 ft 456 kts 191°
2026-04-25 08:44 59.40692 38.04445 33599 ft 456 kts 191°
2026-04-25 08:45 59.34372 38.03226 33603 ft 456 kts 191°
2026-04-25 08:45 59.28100 38.02021 33602 ft 456 kts 191°
2026-04-25 08:46 59.21777 38.00903 33606 ft 457 kts 190°
2026-04-25 08:46 59.15436 37.99907 33605 ft 457 kts 189°
2026-04-25 08:47 59.09090 37.98927 33607 ft 457 kts 190°
2026-04-25 08:47 59.02752 37.97902 33609 ft 457 kts 190°
2026-04-25 08:48 58.96413 37.96867 33607 ft 457 kts 190°
2026-04-25 08:48 58.90078 37.95852 33608 ft 457 kts 190°
2026-04-25 08:49 58.83741 37.94827 33608 ft 457 kts 190°
2026-04-25 08:49 58.77447 37.93821 33617 ft 457 kts 190°
2026-04-25 08:50 58.71113 37.92824 33618 ft 457 kts 190°
2026-04-25 08:50 58.64780 37.91849 33617 ft 457 kts 189°
2026-04-25 08:51 58.58441 37.90993 33620 ft 457 kts 189°
2026-04-25 08:51 58.52099 37.90162 33623 ft 457 kts 189°
2026-04-25 08:52 58.45761 37.89313 33627 ft 456 kts 189°
2026-04-25 08:52 58.39429 37.88448 33627 ft 456 kts 189°
2026-04-25 08:53 58.33091 37.87596 33643 ft 456 kts 189°
2026-04-25 08:53 58.26759 37.86756 33642 ft 456 kts 189°
2026-04-25 08:54 58.20467 37.85912 33645 ft 456 kts 189°
2026-04-25 08:54 58.14109 37.85055 33293 ft 460 kts 189°
2026-04-25 08:54 58.10919 37.84638 33013 ft 459 kts 189°
2026-04-25 08:55 58.07739 37.84223 32737 ft 457 kts 189°
2026-04-25 08:55 58.04580 37.83814 32484 ft 454 kts 189°
2026-04-25 08:55 58.01432 37.83401 32205 ft 452 kts 189°
2026-04-25 08:55 57.98303 37.82985 31936 ft 450 kts 189°
2026-04-25 08:56 57.95185 37.82575 31658 ft 447 kts 189°
2026-04-25 08:56 57.92104 37.82175 31136 ft 443 kts 189°
2026-04-25 08:56 57.89040 37.81780 30595 ft 439 kts 190°
2026-04-25 08:56 57.85999 37.81390 30063 ft 436 kts 190°
2026-04-25 08:57 57.82983 37.80999 29504 ft 433 kts 190°
2026-04-25 08:57 57.79995 37.80604 28969 ft 428 kts 191°
2026-04-25 08:57 57.77049 37.80192 28465 ft 422 kts 191°
2026-04-25 08:57 57.74137 37.79763 27974 ft 417 kts 191°
2026-04-25 08:58 57.71265 37.79338 27482 ft 411 kts 191°
2026-04-25 08:58 57.68437 37.78924 27017 ft 405 kts 191°
2026-04-25 08:58 57.65642 37.78520 26550 ft 400 kts 191°
2026-04-25 08:58 57.62923 37.78135 26107 ft 394 kts 191°
2026-04-25 08:59 57.60204 37.77748 25658 ft 389 kts 191°
2026-04-25 08:59 57.57521 37.77367 25237 ft 385 kts 190°
2026-04-25 08:59 57.54860 37.76993 24821 ft 382 kts 190°
2026-04-25 08:59 57.52213 37.76623 24414 ft 381 kts 190°
2026-04-25 09:00 57.49578 37.76255 24007 ft 379 kts 190°
2026-04-25 09:00 57.46952 37.75888 23601 ft 378 kts 190°
2026-04-25 09:00 57.44334 37.75522 23182 ft 377 kts 189°
2026-04-25 09:00 57.41726 37.75178 22721 ft 375 kts 189°
2026-04-25 09:01 57.39129 37.74844 22305 ft 373 kts 189°
2026-04-25 09:01 57.36549 37.74510 21898 ft 371 kts 189°
2026-04-25 09:01 57.33986 37.74177 21489 ft 368 kts 189°
2026-04-25 09:01 57.31437 37.73851 21073 ft 366 kts 189°
2026-04-25 09:02 57.28905 37.73530 20655 ft 363 kts 189°
2026-04-25 09:02 57.26394 37.73214 20234 ft 361 kts 189°
2026-04-25 09:02 57.23898 37.72895 19818 ft 359 kts 189°
2026-04-25 09:02 57.21417 37.72572 19417 ft 356 kts 189°
2026-04-25 09:03 57.18952 37.72253 19008 ft 354 kts 189°
2026-04-25 09:03 57.16504 37.71938 18602 ft 352 kts 189°
2026-04-25 09:03 57.14067 37.71625 18202 ft 350 kts 189°
2026-04-25 09:03 57.11644 37.71310 17783 ft 348 kts 189°
2026-04-25 09:04 57.09272 37.70675 17366 ft 347 kts 196°
2026-04-25 09:04 57.06843 37.69808 16965 ft 360 kts 195°
2026-04-25 09:04 57.04374 37.68948 16560 ft 362 kts 195°
2026-04-25 09:04 57.01904 37.68104 16145 ft 360 kts 195°
2026-04-25 09:05 56.99444 37.67271 15742 ft 358 kts 195°
2026-04-25 09:05 56.96997 37.66444 15340 ft 356 kts 194°
2026-04-25 09:05 56.94568 37.65617 14932 ft 354 kts 194°
2026-04-25 09:05 56.92181 37.64800 14541 ft 352 kts 194°
2026-04-25 09:06 56.89777 37.63977 14139 ft 350 kts 194°
2026-04-25 09:06 56.87389 37.63163 13733 ft 349 kts 194°
2026-04-25 09:06 56.85009 37.62351 13337 ft 347 kts 194°
2026-04-25 09:06 56.82648 37.61544 12929 ft 344 kts 194°
2026-04-25 09:07 56.80299 37.60739 12542 ft 342 kts 194°
2026-04-25 09:07 56.77978 37.59944 12201 ft 335 kts 194°
2026-04-25 09:07 56.75715 37.59176 11934 ft 327 kts 194°
2026-04-25 09:07 56.73510 37.58434 11712 ft 317 kts 194°
2026-04-25 09:08 56.71385 37.57704 11645 ft 301 kts 197°
2026-04-25 09:08 56.69555 37.56269 11656 ft 276 kts 221°
2026-04-25 09:08 56.68229 37.53901 11662 ft 263 kts 241°
2026-04-25 09:08 56.67432 37.50983 11663 ft 254 kts 259°
2026-04-25 09:09 56.67188 37.47855 11663 ft 248 kts 276°
2026-04-25 09:09 56.67469 37.44814 11665 ft 242 kts 292°
2026-04-25 09:09 56.68225 37.42112 11671 ft 239 kts 308°
2026-04-25 09:09 56.69383 37.39965 11668 ft 238 kts 324°
2026-04-25 09:10 56.70840 37.38546 11671 ft 239 kts 340°
2026-04-25 09:10 56.72479 37.37976 11673 ft 242 kts 356°
2026-04-25 09:10 56.74166 37.38231 11672 ft 245 kts
2026-04-25 09:10 56.75826 37.38787 11672 ft 246 kts
2026-04-25 09:11 56.79175 37.40135 11673 ft 247 kts
2026-04-25 09:11 56.80849 37.40819 11668 ft 247 kts
2026-04-25 09:11 56.82524 37.41492 11671 ft 247 kts
2026-04-25 09:12 56.84201 37.42156 11670 ft 246 kts
2026-04-25 09:12 56.85877 37.42812 11668 ft 246 kts
2026-04-25 09:12 56.87550 37.43463 11668 ft 246 kts
2026-04-25 09:12 56.89226 37.44109 11669 ft 246 kts
2026-04-25 09:13 56.90898 37.44778 11668 ft 247 kts 12°
2026-04-25 09:13 56.92491 37.46023 11670 ft 253 kts 27°
2026-04-25 09:13 56.93826 37.48158 11670 ft 260 kts 47°
2026-04-25 09:13 56.94715 37.51092 11668 ft 269 kts 67°
2026-04-25 09:14 56.95015 37.54516 11666 ft 277 kts 88°
2026-04-25 09:14 56.94641 37.58009 11668 ft 284 kts 110°
2026-04-25 09:14 56.93608 37.61095 11667 ft 288 kts 132°
2026-04-25 09:14 56.92031 37.63331 11663 ft 288 kts 155°
2026-04-25 09:15 56.90160 37.64375 11665 ft 285 kts 178°
2026-04-25 09:15 56.88203 37.64209 11666 ft 281 kts 193°
2026-04-25 09:15 56.86281 37.63586 11666 ft 280 kts 195°
2026-04-25 09:15 56.84374 37.62844 11666 ft 280 kts 197°
2026-04-25 09:16 56.82471 37.62066 11666 ft 280 kts 197°
2026-04-25 09:16 56.80570 37.61288 11668 ft 280 kts 197°
2026-04-25 09:16 56.78669 37.60523 11665 ft 280 kts 196°
2026-04-25 09:16 56.76764 37.59773 11666 ft 280 kts 196°
2026-04-25 09:17 56.72943 37.57803 11670 ft 297 kts 214°
2026-04-25 09:17 56.71336 37.55488 11668 ft 294 kts 234°
2026-04-25 09:17 56.70244 37.52413 11669 ft 287 kts 250°
2026-04-25 09:18 56.69427 37.49090 11669 ft 287 kts 251°
2026-04-25 09:18 56.68607 37.45771 11578 ft 288 kts 249°
2026-04-25 09:18 56.67389 37.42846 11090 ft 298 kts 221°
2026-04-25 09:18 56.65485 37.41305 10637 ft 307 kts 191°
2026-04-25 09:19 56.63386 37.41677 10195 ft 312 kts 161°
2026-04-25 09:19 56.61425 37.43175 9906 ft 307 kts 157°
2026-04-25 09:19 56.59454 37.44757 9764 ft 306 kts 157°
2026-04-25 09:19 56.57542 37.46303 9493 ft 304 kts 157°
2026-04-25 09:20 56.55622 37.47853 9165 ft 299 kts 157°
2026-04-25 09:20 56.53717 37.49129 8993 ft 285 kts 171°
2026-04-25 09:20 56.51808 37.49326 9002 ft 271 kts 190°
2026-04-25 09:20 56.50001 37.48507 9001 ft 266 kts 206°
2026-04-25 09:21 56.48244 37.47443 8862 ft 269 kts 188°
2026-04-25 09:21 56.46386 37.47928 8730 ft 274 kts 165°
2026-04-25 09:21 56.44554 37.48868 8589 ft 273 kts 167°
2026-04-25 09:21 56.42710 37.49692 8452 ft 272 kts 169°
2026-04-25 09:22 56.40866 37.50451 8317 ft 272 kts 170°
2026-04-25 09:22 56.39024 37.51180 8176 ft 270 kts 170°
2026-04-25 09:22 56.37187 37.51899 8043 ft 270 kts 170°
2026-04-25 09:22 56.35358 37.52609 7909 ft 269 kts 170°
2026-04-25 09:23 56.33528 37.53321 7774 ft 268 kts 170°
2026-04-25 09:23 56.31713 37.54032 7504 ft 266 kts 170°
2026-04-25 09:23 56.29912 37.54736 7159 ft 264 kts 170°
2026-04-25 09:23 56.28128 37.55436 6793 ft 262 kts 170°
2026-04-25 09:24 56.26344 37.56137 6417 ft 263 kts 170°
2026-04-25 09:24 56.24550 37.56841 6124 ft 261 kts 170°
2026-04-25 09:24 56.22808 37.57527 5975 ft 253 kts 170°
2026-04-25 09:24 56.21098 37.58214 5667 ft 252 kts 166°
2026-04-25 09:25 56.19503 37.59495 5414 ft 252 kts 147°
2026-04-25 09:25 56.18188 37.61549 5082 ft 251 kts 134°
2026-04-25 09:25 56.16996 37.63760 4822 ft 248 kts 135°
2026-04-25 09:25 56.15809 37.65949 4625 ft 242 kts 135°
2026-04-25 09:26 56.14630 37.68113 4500 ft 242 kts 135°
2026-04-25 09:26 56.13457 37.70262 4390 ft 241 kts 135°
2026-04-25 09:26 56.12304 37.72372 4264 ft 231 kts 135°
2026-04-25 09:26 56.11221 37.74353 4176 ft 214 kts 135°
2026-04-25 09:27 56.10122 37.76092 4080 ft 209 kts 150°
2026-04-25 09:27 56.08776 37.76937 3978 ft 205 kts 175°
2026-04-25 09:27 56.07382 37.76738 3793 ft 200 kts 199°
2026-04-25 09:27 56.06067 37.75975 3635 ft 198 kts 201°
2026-04-25 09:28 56.04756 37.75221 3472 ft 198 kts 200°
2026-04-25 09:28 56.03454 37.74476 3310 ft 193 kts 201°
2026-04-25 09:28 56.02318 37.73343 3158 ft 184 kts 225°
2026-04-25 09:28 56.01597 37.71511 3027 ft 180 kts 249°
2026-04-25 09:29 56.01250 37.69393 2897 ft 176 kts 257°
2026-04-25 09:29 56.00941 37.67257 2747 ft 178 kts 257°
2026-04-25 09:29 56.00630 37.65123 2616 ft 178 kts 257°
2026-04-25 09:29 56.00321 37.63017 2442 ft 169 kts 257°
2026-04-25 09:30 56.00030 37.61045 2310 ft 159 kts 257°
2026-04-25 09:30 55.99755 37.59176 2203 ft 157 kts 257°
2026-04-25 09:30 55.99479 37.57297 2112 ft 156 kts 257°
2026-04-25 09:30 55.99203 37.55427 2032 ft 156 kts 257°
2026-04-25 09:31 55.98932 37.53592 1806 ft 149 kts 257°
2026-04-25 09:31 55.98755 37.52398 1656 ft 146 kts 258°
2026-04-25 09:31 55.98419 37.50122 1352 ft 142 kts 258°
2026-04-25 09:31 55.98167 37.48424 1149 ft 141 kts 258°
2026-04-25 09:32 55.97917 37.46728 955 ft 142 kts 257°
2026-04-25 09:32 55.97664 37.45019 753 ft 142 kts 256°
2026-04-25 09:32 55.97397 37.43340 642 ft 134 kts 274°
2026-04-25 09:32 55.97250 37.42074 642 ft 64 kts 252°
2026-04-25 09:33 55.97189 37.41739 639 ft 16 kts 251°
2026-04-25 09:33 55.97162 37.41597 638 ft 19 kts 250°
2026-04-25 09:33 55.97139 37.41388 640 ft 15 kts 288°
2026-04-25 09:33 55.97205 37.41332 642 ft 10 kts 342°
2026-04-25 09:34 55.97271 37.41295 644 ft 10 kts 345°
2026-04-25 09:34 55.97329 37.41270 640 ft 7 kts 359°
2026-04-25 09:34 55.97378 37.41248 640 ft 8 kts 343°
2026-04-25 09:34 55.97439 37.41216 639 ft 10 kts 343°
2026-04-25 09:35 55.97514 37.41189 641 ft 12 kts
2026-04-25 09:35 55.97553 37.41296 642 ft 11 kts 76°
2026-04-25 09:35 55.97573 37.41437 643 ft 12 kts 75°
2026-04-25 09:35 55.97600 37.41581 641 ft 12 kts 50°
2026-04-25 09:36 55.97676 37.41582 643 ft 12 kts 346°
2026-04-25 09:36 55.97759 37.41543 640 ft 13 kts 345°
2026-04-25 09:36 55.97848 37.41500 639 ft 13 kts 345°
2026-04-25 09:36 55.97933 37.41475 643 ft 11 kts 21°
2026-04-25 09:37 55.97956 37.41581 639 ft 8 kts 76°
2026-04-25 09:37 55.97961 37.41622 639 ft 0 kts 76°